Weather History for KPRO - October, 2013

Change the Weather History Date:

Friday, October 18, 2013

  Actual Average (KAMW) Record (KAMW)
Temperature  
Mean Temperature 44 °F 50 °F  
Max Temperature 51 °F 62 °F - ()
Min Temperature 36 °F 38 °F - ()
Degree Days  
Heating Degree Days 22 15  
Month to date heating degree days 219  
Since 1 July heating degree days 363  
Cooling Degree Days 0 0  
Month to date cooling degree days 10  
Year to date cooling degree days 752  
Moisture  
Dew Point 31 °F    
Average Humidity 64    
Maximum Humidity 90    
Minimum Humidity 33    
Precipitation  
Precipitation 0.00 in 0.07 in - ()
Month to date precipitation 1.39  
Sea Level Pressure  
Sea Level Pressure 30.01 in    
Wind  
Wind Speed 9 mph (WNW)    
Max Wind Speed 14 mph    
Max Gust Speed 18 mph    
Visibility 10 miles    
Events      
T = Trace of Precipitation, MM = Missing Value Source: NWS Daily Summary

Daily Weather History Graph

Daily Weather History Graph

Search for Another Location

Airport or City:

Trip Planner

Search our weather history database for the weather conditions in past years. The results will help you decide how hot, cold, wet, or windy it might be!

Date:

Astronomy

Oct. 18, 2013 Rise Set
Actual Time 7:32 AM CDT 6:30 PM CDT
Civil Twilight 7:04 AM CDT 6:58 PM CDT
Nautical Twilight 6:32 AM CDT 7:30 PM CDT
Astronomical Twilight 5:59 AM CDT 8:02 PM CDT
Moon 6:20 PM CDT (10/18) 7:09 AM CDT (10/18)
Length of Visible Light 11h 53m
Length of Day
10h 57m
Full, 100% of the Moon is Illuminated
Oct 18
Full
Oct 18
Full
Oct 26
Last Quarter
Nov 3
New
Nov 9
First Quarter

Hourly Weather History & Observations

Time (CDT) Temp. Windchill Dew Point Humidity Pressure Visibility Wind Dir Wind Speed Gust Speed Precip Events Conditions
12:15 AM 44.1 °F 37.7 °F 35.2 °F 71% 29.99 in 10.0 mi NW 12.7 mph 17.3 mph N/A   Overcast
12:35 AM 43.9 °F 38.3 °F 35.1 °F 71% 29.99 in 10.0 mi NW 10.4 mph 18.4 mph N/A   Overcast
12:55 AM 43.5 °F 37.5 °F 35.1 °F 72% 29.99 in 10.0 mi NW 11.5 mph 16.1 mph N/A   Overcast
1:15 AM 42.8 °F 37.5 °F 35.2 °F 75% 29.98 in 10.0 mi NW 9.2 mph - N/A   Mostly Cloudy
1:35 AM 41.5 °F 37.1 °F 35.8 °F 80% 29.99 in 10.0 mi WNW 6.9 mph - N/A   Scattered Clouds
1:55 AM 40.6 °F 35.4 °F 35.6 °F 82% 29.99 in 10.0 mi WNW 8.1 mph - N/A   Scattered Clouds
2:15 AM 40.1 °F 35.3 °F 35.4 °F 83% 29.99 in 10.0 mi WNW 6.9 mph - N/A   Clear
2:35 AM 39.4 °F 34.5 °F 35.2 °F 85% 29.99 in 10.0 mi WNW 6.9 mph - N/A   Clear
2:55 AM 38.5 °F 34.1 °F 34.9 °F 87% 29.99 in 10.0 mi WNW 5.8 mph - N/A   Clear
3:15 AM 38.3 °F 32.5 °F 34.7 °F 87% 29.99 in 10.0 mi WNW 8.1 mph - N/A   Clear
3:35 AM 37.9 °F 32.1 °F 34.7 °F 88% 29.99 in 10.0 mi WNW 8.1 mph - N/A   Clear
3:55 AM 37.4 °F 30.8 °F 34.2 °F 88% 29.99 in 10.0 mi West 9.2 mph - N/A   Clear
4:15 AM 36.9 °F 31.4 °F 34.2 °F 90% 29.99 in 10.0 mi WNW 6.9 mph - N/A   Clear
4:35 AM 37.4 °F 31.4 °F 34.3 °F 89% 29.99 in 10.0 mi WNW 8.1 mph - N/A   Clear
4:55 AM 37.2 °F 31.2 °F 34.0 °F 88% 30.00 in 10.0 mi WNW 8.1 mph - N/A   Scattered Clouds
5:15 AM 38.3 °F 32.5 °F 35.1 °F 88% 30.00 in 10.0 mi WNW 8.1 mph - N/A   Overcast
5:35 AM 38.5 °F 32.1 °F 35.4 °F 89% 30.01 in 10.0 mi West 9.2 mph - N/A   Overcast
5:55 AM 38.1 °F 32.3 °F 34.9 °F 88% 30.01 in 10.0 mi West 8.1 mph - N/A   Mostly Cloudy
6:15 AM 38.1 °F 31.2 °F 34.9 °F 88% 30.02 in 10.0 mi West 10.4 mph - N/A   Scattered Clouds
6:35 AM 38.3 °F 32.5 °F 34.9 °F 87% 30.02 in 10.0 mi WNW 8.1 mph - N/A   Scattered Clouds
6:55 AM 38.1 °F 31.7 °F 34.2 °F 86% 30.03 in 10.0 mi WNW 9.2 mph - N/A   Clear
7:15 AM 37.2 °F 31.2 °F 33.6 °F 87% 30.02 in 10.0 mi WNW 8.1 mph - N/A   Clear
7:35 AM 36.9 °F 30.7 °F 33.3 °F 87% 30.03 in 10.0 mi WNW 8.1 mph - N/A   Clear
7:55 AM 37.0 °F 31.6 °F 33.1 °F 86% 30.04 in 10.0 mi WNW 6.9 mph - N/A   Clear
8:15 AM 37.8 °F 32.5 °F 33.4 °F 84% 30.04 in 10.0 mi WNW 6.9 mph - N/A   Clear
8:35 AM 38.7 °F 32.4 °F 33.8 °F 83% 30.05 in 10.0 mi WNW 9.2 mph - N/A   Clear
8:55 AM 39.4 °F 33.2 °F 33.8 °F 80% 30.06 in 10.0 mi WNW 9.2 mph - N/A   Clear
9:15 AM 40.1 °F 36.1 °F 33.8 °F 78% 30.06 in 10.0 mi WNW 5.8 mph - N/A   Clear
9:35 AM 41.4 °F 35.7 °F 33.3 °F 73% 30.06 in 10.0 mi NW 9.2 mph - N/A   Clear
9:55 AM 43.0 °F 38.2 °F 33.4 °F 69% 30.07 in 10.0 mi WNW 8.1 mph - N/A   Clear
10:15 AM 44.1 °F 40.1 °F 32.9 °F 65% 30.07 in 10.0 mi WNW 6.9 mph - N/A   Clear
10:35 AM 44.8 °F 41.0 °F 32.2 °F 61% 30.08 in 10.0 mi WNW 6.9 mph - N/A   Clear
10:55 AM 46.0 °F 41.9 °F 31.6 °F 57% 30.07 in 10.0 mi NW 8.1 mph - N/A   Clear
11:15 AM 47.8 °F - 31.1 °F 52% 30.07 in 10.0 mi NNW 8.1 mph - N/A   Clear
11:35 AM 48.2 °F - 27.5 °F 45% 30.07 in 10.0 mi NNW 11.5 mph 17.3 mph N/A   Clear
11:55 AM 48.9 °F - 27.3 °F 43% 30.07 in 10.0 mi WNW 10.4 mph - N/A   Clear
12:15 PM 49.8 °F - 25.3 °F 39% 30.07 in 10.0 mi NNW 12.7 mph - N/A   Scattered Clouds
12:35 PM 49.5 °F - 25.7 °F 40% 30.06 in 10.0 mi NNW 12.7 mph 18.4 mph N/A   Mostly Cloudy
12:55 PM 50.4 °F - 25.0 °F 37% 30.05 in 10.0 mi NNW 13.8 mph 18.4 mph N/A   Scattered Clouds
1:15 PM 50.2 °F - 23.9 °F 36% 30.04 in 10.0 mi NW 9.2 mph - N/A   Mostly Cloudy
1:35 PM 50.0 °F - 23.9 °F 36% 30.04 in 10.0 mi NW 6.9 mph - N/A   Scattered Clouds
1:55 PM 50.0 °F - 24.6 °F 37% 30.04 in 10.0 mi NW 8.1 mph - N/A   Scattered Clouds
2:15 PM 50.4 °F - 24.6 °F 37% 30.03 in 10.0 mi WNW 10.4 mph 17.3 mph N/A   Scattered Clouds
2:35 PM 49.8 °F - 23.9 °F 36% 30.02 in 10.0 mi NW 8.1 mph - N/A   Scattered Clouds
2:55 PM 50.2 °F - 24.8 °F 37% 30.01 in 10.0 mi NW 6.9 mph - N/A   Scattered Clouds
3:15 PM 50.9 °F - 24.1 °F 35% 30.01 in 10.0 mi WNW 11.5 mph 17.3 mph N/A   Scattered Clouds
3:35 PM 50.9 °F - 24.1 °F 35% 30.01 in 10.0 mi NW 6.9 mph - N/A   Scattered Clouds
3:55 PM 51.3 °F - 23.9 °F 34% 30.01 in 10.0 mi WNW 8.1 mph - N/A   Clear
4:15 PM 51.4 °F - 22.8 °F 33% 30.00 in 10.0 mi West 11.5 mph - N/A   Mostly Cloudy
4:35 PM 50.9 °F - 23.0 °F 34% 30.00 in 10.0 mi NW 5.8 mph - N/A   Mostly Cloudy
4:55 PM 50.9 °F - 22.3 °F 33% 30.00 in 10.0 mi WNW 8.1 mph - N/A   Scattered Clouds
5:15 PM 50.5 °F - 23.2 °F 34% 30.00 in 10.0 mi NW 4.6 mph - N/A   Clear
5:35 PM 50.2 °F - 24.1 °F 36% 30.00 in 10.0 mi WNW 5.8 mph - N/A   Scattered Clouds
5:55 PM 49.5 °F - 25.0 °F 38% 30.00 in 10.0 mi West 4.6 mph - N/A   Mostly Cloudy
6:15 PM 48.2 °F - 26.6 °F 43% 30.00 in 10.0 mi West 4.6 mph - N/A   Mostly Cloudy
6:35 PM 46.6 °F - 28.4 °F 49% 30.00 in 10.0 mi West 4.6 mph - N/A   Overcast
6:55 PM 46.4 °F 43.5 °F 29.1 °F 51% 29.99 in 10.0 mi WSW 5.8 mph - N/A   Overcast
7:15 PM 45.0 °F 42.6 °F 30.2 °F 56% 29.99 in 10.0 mi WSW 4.6 mph - N/A   Scattered Clouds
7:35 PM 43.2 °F 39.7 °F 31.5 °F 63% 29.99 in 10.0 mi WSW 5.8 mph - N/A   Clear
7:55 PM 42.4 °F 38.8 °F 31.1 °F 64% 29.99 in 10.0 mi WSW 5.8 mph - N/A   Clear
8:15 PM 41.2 °F 36.6 °F 31.6 °F 69% 29.99 in 10.0 mi WSW 6.9 mph - N/A   Clear
8:35 PM 40.3 °F 35.5 °F 31.6 °F 71% 29.99 in 10.0 mi WSW 6.9 mph - N/A   Clear
8:55 PM 39.4 °F 34.5 °F 31.5 °F 73% 29.99 in 10.0 mi WSW 6.9 mph - N/A   Clear
9:15 PM 38.8 °F 33.8 °F 31.1 °F 74% 29.99 in 10.0 mi WSW 6.9 mph - N/A   Clear
9:35 PM 38.7 °F 33.6 °F 31.6 °F 76% 29.99 in 10.0 mi SW 6.9 mph - N/A   Mostly Cloudy
9:55 PM 40.5 °F 35.8 °F 31.6 °F 71% 29.99 in 10.0 mi SW 6.9 mph - N/A   Overcast
10:15 PM 41.9 °F 37.5 °F 31.6 °F 67% 29.99 in 10.0 mi WSW 6.9 mph - N/A   Overcast
10:35 PM 42.3 °F 37.9 °F 31.6 °F 66% 29.98 in 10.0 mi SW 6.9 mph - N/A   Overcast
10:55 PM 42.8 °F 38.6 °F 31.5 °F 64% 29.98 in 10.0 mi SW 6.9 mph - N/A   Overcast
11:15 PM 43.0 °F 38.8 °F 31.3 °F 63% 29.97 in 10.0 mi SW 6.9 mph - N/A   Overcast
11:35 PM 43.3 °F 38.6 °F 31.1 °F 62% 29.97 in 10.0 mi SW 8.1 mph - N/A   Overcast
11:55 PM 42.8 °F 38.0 °F 31.1 °F 63% 29.96 in 10.0 mi WSW 8.1 mph - N/A   Overcast